contact:dominique.lefevre@mio.osupytheas.fr, maurice.libes@osupytheas.fr, didier.mallarino@osupytheas.fr
Project:EMSO http://www.emso-fr.org/EMSO-France
Depth: 2436.0 m
Title:EMSO Ligure Ouest : Data MII capteur CSTAR
DateTime,Latitude,Longitude,Instrument_Serial,Reference_Counts,Signal_Counts,Corrected_Signal_raw_counts,Calculated_Beam_c_inverse_meters,Internal_thermistor_counts
DateTime,Latitude,Longitude,Instrument_Serial,Reference_Counts,Signal_Counts,Corrected_Signal_raw_counts,Calculated_Beam_c_inverse_meters,Internal_thermistor_counts
2020-10-15T00:01:05,42.805,6.029,CST-1368DR,5885,8232,15075,0.141,551
2020-10-15T00:04:07,42.805,6.029,CST-1368DR,5885,8233,15078,0.140,551
2020-10-15T00:07:09,42.805,6.029,CST-1368DR,5885,8231,15074,0.141,551
2020-10-15T00:10:10,42.805,6.029,CST-1368DR,5885,8233,15078,0.140,551
2020-10-15T00:13:12,42.805,6.029,CST-1368DR,5885,8234,15079,0.140,551
2020-10-15T00:16:13,42.805,6.029,CST-1368DR,5885,8234,15079,0.140,551
2020-10-15T00:19:15,42.805,6.029,CST-1368DR,5885,8232,15076,0.141,551
2020-10-15T00:22:16,42.805,6.029,CST-1368DR,5885,8234,15079,0.140,551
2020-10-15T00:25:18,42.805,6.029,CST-1368DR,5885,8232,15075,0.141,551
2020-10-15T00:28:20,42.805,6.029,CST-1368DR,5885,8233,15078,0.140,550
2020-10-15T00:31:21,42.805,6.029,CST-1368DR,5885,8232,15076,0.141,551
2020-10-15T00:34:23,42.805,6.029,CST-1368DR,5885,8233,15077,0.141,551
2020-10-15T00:37:24,42.805,6.029,CST-1368DR,5885,8234,15079,0.140,551
2020-10-15T00:40:26,42.805,6.029,CST-1368DR,5885,8234,15079,0.140,551
2020-10-15T00:43:28,42.805,6.029,CST-1368DR,5885,8235,15080,0.140,551
2020-10-15T00:46:29,42.805,6.029,CST-1368DR,5885,8234,15079,0.140,551
2020-10-15T00:49:31,42.805,6.029,CST-1368DR,5885,8233,15077,0.141,551
2020-10-15T00:52:32,42.805,6.029,CST-1368DR,5885,8234,15079,0.140,551
2020-10-15T00:55:34,42.805,6.029,CST-1368DR,5885,8235,15081,0.139,551
2020-10-15T00:58:35,42.805,6.029,CST-1368DR,5885,8234,15079,0.140,551
2020-10-15T01:01:37,42.805,6.029,CST-1368DR,5885,8229,15069,0.143,551
2020-10-15T01:04:39,42.805,6.029,CST-1368DR,5885,8229,15070,0.142,551
2020-10-15T01:07:40,42.805,6.029,CST-1368DR,5885,8234,15079,0.140,551
2020-10-15T01:10:42,42.805,6.029,CST-1368DR,5885,8232,15076,0.141,551
2020-10-15T01:13:43,42.805,6.029,CST-1368DR,5885,8233,15078,0.140,551
2020-10-15T01:16:45,42.805,6.029,CST-1368DR,5885,8233,15077,0.141,551
2020-10-15T01:19:46,42.805,6.029,CST-1368DR,5885,8232,15076,0.141,551
2020-10-15T01:22:48,42.805,6.029,CST-1368DR,5885,8232,15076,0.141,551
2020-10-15T01:25:50,42.805,6.029,CST-1368DR,5885,8230,15071,0.142,551
2020-10-15T01:28:51,42.805,6.029,CST-1368DR,5885,8232,15076,0.141,551
2020-10-15T01:31:53,42.805,6.029,CST-1368DR,5885,8232,15076,0.141,551
2020-10-15T01:34:54,42.805,6.029,CST-1368DR,5885,8233,15078,0.140,550
2020-10-15T01:37:56,42.805,6.029,CST-1368DR,5885,8232,15075,0.141,551
2020-10-15T01:40:58,42.805,6.029,CST-1368DR,5885,8232,15076,0.141,551
2020-10-15T01:43:59,42.805,6.029,CST-1368DR,5885,8233,15078,0.140,551
2020-10-15T01:47:01,42.805,6.029,CST-1368DR,5885,8232,15076,0.141,551
2020-10-15T01:50:02,42.805,6.029,CST-1368DR,5885,8233,15078,0.140,551
2020-10-15T01:53:04,42.805,6.029,CST-1368DR,5885,8234,15079,0.140,551
2020-10-15T01:56:05,42.805,6.029,CST-1368DR,5885,8233,15078,0.140,551
2020-10-15T01:59:07,42.805,6.029,CST-1368DR,5885,8233,15078,0.140,551
2020-10-15T02:02:09,42.805,6.029,CST-1368DR,5885,8234,15079,0.140,551
2020-10-15T02:05:10,42.805,6.029,CST-1368DR,5885,8234,15079,0.140,551
2020-10-15T02:08:12,42.805,6.029,CST-1368DR,5885,8234,15079,0.140,551
2020-10-15T02:11:13,42.805,6.029,CST-1368DR,5885,8233,15077,0.141,550
2020-10-15T02:14:15,42.805,6.029,CST-1368DR,5885,8234,15079,0.140,551
2020-10-15T02:17:16,42.805,6.029,CST-1368DR,5885,8233,15078,0.140,551
2020-10-15T02:20:18,42.805,6.029,CST-1368DR,5885,8234,15079,0.140,550
2020-10-15T02:23:20,42.805,6.029,CST-1368DR,5885,8233,15078,0.140,551
2020-10-15T02:26:21,42.805,6.029,CST-1368DR,5885,8226,15064,0.144,551
2020-10-15T02:29:23,42.805,6.029,CST-1368DR,5885,8233,15077,0.141,551
2020-10-15T02:32:24,42.805,6.029,CST-1368DR,5885,8234,15079,0.140,551
2020-10-15T02:35:26,42.805,6.029,CST-1368DR,5885,8233,15078,0.140,551
2020-10-15T02:38:28,42.805,6.029,CST-1368DR,5885,8233,15078,0.140,551
2020-10-15T02:41:29,42.805,6.029,CST-1368DR,5885,8235,15080,0.140,551
2020-10-15T02:44:31,42.805,6.029,CST-1368DR,5885,8232,15076,0.141,551
2020-10-15T02:47:32,42.805,6.029,CST-1368DR,5885,8233,15078,0.140,551
2020-10-15T02:50:34,42.805,6.029,CST-1368DR,5885,8234,15079,0.140,551
2020-10-15T02:53:35,42.805,6.029,CST-1368DR,5885,8233,15078,0.140,551
2020-10-15T02:56:37,42.805,6.029,CST-1368DR,5885,8227,15067,0.143,551
2020-10-15T02:59:39,42.805,6.029,CST-1368DR,5885,8234,15079,0.140,551
2020-10-15T03:02:40,42.805,6.029,CST-1368DR,5885,8233,15077,0.141,551
2020-10-15T03:05:42,42.805,6.029,CST-1368DR,5885,8232,15076,0.141,551
2020-10-15T03:08:43,42.805,6.029,CST-1368DR,5885,8234,15079,0.140,551
2020-10-15T03:11:45,42.805,6.029,CST-1368DR,5885,8233,15078,0.140,551
2020-10-15T03:14:46,42.805,6.029,CST-1368DR,5885,8234,15079,0.140,551
2020-10-15T03:17:48,42.805,6.029,CST-1368DR,5885,8233,15077,0.141,551
2020-10-15T03:20:50,42.805,6.029,CST-1368DR,5885,8233,15078,0.140,551
2020-10-15T03:23:51,42.805,6.029,CST-1368DR,5885,8233,15078,0.140,550
2020-10-15T03:26:53,42.805,6.029,CST-1368DR,5885,8234,15079,0.140,551
2020-10-15T03:29:54,42.805,6.029,CST-1368DR,5885,8235,15080,0.140,551
2020-10-15T03:32:56,42.805,6.029,CST-1368DR,5885,8234,15079,0.140,551
2020-10-15T03:35:58,42.805,6.029,CST-1368DR,5884,8233,15081,0.139,551
2020-10-15T03:38:59,42.805,6.029,CST-1368DR,5885,8235,15080,0.140,551
2020-10-15T03:42:01,42.805,6.029,CST-1368DR,5884,8233,15080,0.140,551
2020-10-15T03:45:02,42.805,6.029,CST-1368DR,5885,8232,15075,0.141,551
2020-10-15T03:48:04,42.805,6.029,CST-1368DR,5885,8233,15077,0.141,551
2020-10-15T03:51:05,42.805,6.029,CST-1368DR,5885,8234,15079,0.140,551
2020-10-15T03:54:07,42.805,6.029,CST-1368DR,5884,8233,15080,0.140,551
2020-10-15T03:57:09,42.805,6.029,CST-1368DR,5885,8233,15077,0.141,551
2020-10-15T04:00:10,42.805,6.029,CST-1368DR,5884,8234,15081,0.139,551
2020-10-15T04:03:12,42.805,6.029,CST-1368DR,5885,8233,15078,0.140,550
2020-10-15T04:06:13,42.805,6.029,CST-1368DR,5885,8233,15078,0.140,551
2020-10-15T04:09:15,42.805,6.029,CST-1368DR,5884,8233,15080,0.140,551
2020-10-15T04:12:17,42.805,6.029,CST-1368DR,5884,8233,15080,0.140,551
2020-10-15T04:15:18,42.805,6.029,CST-1368DR,5884,8232,15079,0.140,551
2020-10-15T04:18:20,42.805,6.029,CST-1368DR,5884,8233,15079,0.140,551
2020-10-15T04:21:21,42.805,6.029,CST-1368DR,5884,8233,15080,0.140,551
2020-10-15T04:24:23,42.805,6.029,CST-1368DR,5884,8233,15081,0.139,551
2020-10-15T04:27:24,42.805,6.029,CST-1368DR,5884,8232,15079,0.140,551
2020-10-15T04:30:26,42.805,6.029,CST-1368DR,5885,8233,15078,0.140,551
2020-10-15T04:33:28,42.805,6.029,CST-1368DR,5884,8233,15080,0.140,551
2020-10-15T04:36:29,42.805,6.029,CST-1368DR,5884,8234,15082,0.139,551
2020-10-15T04:39:31,42.805,6.029,CST-1368DR,5884,8233,15081,0.139,551
2020-10-15T04:42:32,42.805,6.029,CST-1368DR,5884,8233,15080,0.140,551
2020-10-15T04:45:34,42.805,6.029,CST-1368DR,5885,8232,15076,0.141,551
2020-10-15T04:48:35,42.805,6.029,CST-1368DR,5884,8232,15078,0.140,551
2020-10-15T04:51:37,42.805,6.029,CST-1368DR,5884,8232,15079,0.140,551
2020-10-15T04:54:39,42.805,6.029,CST-1368DR,5884,8233,15079,0.140,551
2020-10-15T04:57:40,42.805,6.029,CST-1368DR,5884,8233,15080,0.140,551
2020-10-15T05:00:42,42.805,6.029,CST-1368DR,5885,8232,15076,0.141,551
2020-10-15T05:03:43,42.805,6.029,CST-1368DR,5884,8233,15080,0.140,551
2020-10-15T05:06:45,42.805,6.029,CST-1368DR,5885,8232,15076,0.141,551
2020-10-15T05:09:47,42.805,6.029,CST-1368DR,5885,8234,15079,0.140,551
2020-10-15T05:12:48,42.805,6.029,CST-1368DR,5884,8232,15078,0.140,551
2020-10-15T05:15:50,42.805,6.029,CST-1368DR,5885,8232,15075,0.141,551
2020-10-15T05:18:51,42.805,6.029,CST-1368DR,5884,8232,15079,0.140,551
2020-10-15T05:21:53,42.805,6.029,CST-1368DR,5884,8233,15080,0.140,551
2020-10-15T05:24:54,42.805,6.029,CST-1368DR,5884,8233,15080,0.140,551
2020-10-15T05:27:56,42.805,6.029,CST-1368DR,5884,8232,15079,0.140,551
2020-10-15T05:30:58,42.805,6.029,CST-1368DR,5884,8233,15080,0.140,551
2020-10-15T05:33:59,42.805,6.029,CST-1368DR,5884,8233,15080,0.140,551
2020-10-15T05:37:01,42.805,6.029,CST-1368DR,5884,8232,15078,0.140,551
2020-10-15T05:40:02,42.805,6.029,CST-1368DR,5884,8232,15079,0.140,551
2020-10-15T05:43:04,42.805,6.029,CST-1368DR,5884,8232,15079,0.140,551
2020-10-15T05:46:05,42.805,6.029,CST-1368DR,5884,8232,15079,0.140,551
2020-10-15T05:49:07,42.805,6.029,CST-1368DR,5884,8233,15080,0.140,551
2020-10-15T05:52:09,42.805,6.029,CST-1368DR,5884,8233,15080,0.140,551
2020-10-15T05:55:10,42.805,6.029,CST-1368DR,5884,8231,15075,0.141,551
2020-10-15T05:58:12,42.805,6.029,CST-1368DR,5884,8233,15080,0.140,551
2020-10-15T06:01:13,42.805,6.029,CST-1368DR,5884,8233,15080,0.140,551
2020-10-15T06:04:15,42.805,6.029,CST-1368DR,5884,8232,15078,0.140,551
2020-10-15T06:07:17,42.805,6.029,CST-1368DR,5884,8231,15077,0.141,551
2020-10-15T06:10:18,42.805,6.029,CST-1368DR,5884,8230,15075,0.141,551
2020-10-15T06:13:20,42.805,6.029,CST-1368DR,5884,8233,15079,0.140,551
2020-10-15T06:16:21,42.805,6.029,CST-1368DR,5884,8233,15079,0.140,551
2020-10-15T06:19:23,42.805,6.029,CST-1368DR,5884,8233,15079,0.140,551
2020-10-15T06:22:24,42.805,6.029,CST-1368DR,5884,8232,15077,0.141,551
2020-10-15T06:25:26,42.805,6.029,CST-1368DR,5884,8231,15075,0.141,551
2020-10-15T06:28:28,42.805,6.029,CST-1368DR,5884,8233,15079,0.140,551
2020-10-15T06:31:29,42.805,6.029,CST-1368DR,5884,8233,15080,0.140,551
2020-10-15T06:34:31,42.805,6.029,CST-1368DR,5884,8232,15077,0.141,551
2020-10-15T06:37:32,42.805,6.029,CST-1368DR,5884,8232,15077,0.141,551
2020-10-15T06:40:34,42.805,6.029,CST-1368DR,5884,8233,15080,0.140,551
2020-10-15T06:43:36,42.805,6.029,CST-1368DR,5884,8232,15079,0.140,551
2020-10-15T06:46:37,42.805,6.029,CST-1368DR,5884,8230,15074,0.141,551
2020-10-15T06:49:39,42.805,6.029,CST-1368DR,5884,8232,15078,0.140,551
2020-10-15T06:52:40,42.805,6.029,CST-1368DR,5884,8231,15077,0.141,551
2020-10-15T06:55:42,42.805,6.029,CST-1368DR,5884,8232,15078,0.140,551
2020-10-15T06:58:43,42.805,6.029,CST-1368DR,5884,8232,15079,0.140,550
2020-10-15T07:01:45,42.805,6.029,CST-1368DR,5884,8232,15077,0.141,551
2020-10-15T07:04:47,42.805,6.029,CST-1368DR,5884,8230,15074,0.141,551
2020-10-15T07:07:48,42.805,6.029,CST-1368DR,5884,8230,15074,0.141,551
2020-10-15T07:10:50,42.805,6.029,CST-1368DR,5884,8232,15078,0.140,551
2020-10-15T07:13:51,42.805,6.029,CST-1368DR,5884,8232,15079,0.140,551
2020-10-15T07:16:53,42.805,6.029,CST-1368DR,5884,8231,15077,0.141,551
2020-10-15T07:19:54,42.805,6.029,CST-1368DR,5884,8231,15077,0.141,551
2020-10-15T07:22:56,42.805,6.029,CST-1368DR,5884,8233,15079,0.140,551
2020-10-15T07:25:58,42.805,6.029,CST-1368DR,5884,8232,15079,0.140,551
2020-10-15T07:28:59,42.805,6.029,CST-1368DR,5884,8232,15077,0.141,550
2020-10-15T07:32:01,42.805,6.029,CST-1368DR,5884,8230,15074,0.141,551
2020-10-15T07:35:02,42.805,6.029,CST-1368DR,5884,8232,15077,0.141,551
2020-10-15T07:38:04,42.805,6.029,CST-1368DR,5884,8232,15078,0.140,551
2020-10-15T07:41:06,42.805,6.029,CST-1368DR,5884,8231,15077,0.141,551
2020-10-15T07:44:07,42.805,6.029,CST-1368DR,5884,8232,15078,0.140,550
2020-10-15T07:47:09,42.805,6.029,CST-1368DR,5884,8232,15077,0.141,551
2020-10-15T07:50:10,42.805,6.029,CST-1368DR,5884,8228,15071,0.142,551
2020-10-15T07:53:12,42.805,6.029,CST-1368DR,5884,8230,15075,0.141,551
2020-10-15T07:56:13,42.805,6.029,CST-1368DR,5884,8231,15076,0.141,551
2020-10-15T07:59:15,42.805,6.029,CST-1368DR,5884,8231,15075,0.141,551
2020-10-15T08:02:17,42.805,6.029,CST-1368DR,5884,8232,15077,0.141,551
2020-10-15T08:05:18,42.805,6.029,CST-1368DR,5884,8231,15075,0.141,551
2020-10-15T08:08:20,42.805,6.029,CST-1368DR,5884,8232,15078,0.140,551
2020-10-15T08:11:21,42.805,6.029,CST-1368DR,5884,8232,15078,0.140,551
2020-10-15T08:14:23,42.805,6.029,CST-1368DR,5884,8232,15078,0.140,551
2020-10-15T08:17:25,42.805,6.029,CST-1368DR,5884,8230,15075,0.141,551
2020-10-15T08:20:26,42.805,6.029,CST-1368DR,5884,8232,15078,0.140,551
2020-10-15T08:23:28,42.805,6.029,CST-1368DR,5884,8232,15079,0.140,551
2020-10-15T08:26:29,42.805,6.029,CST-1368DR,5884,8232,15078,0.140,551
2020-10-15T08:29:31,42.805,6.029,CST-1368DR,5884,8231,15077,0.141,551
2020-10-15T08:32:32,42.805,6.029,CST-1368DR,5884,8231,15076,0.141,551
2020-10-15T08:35:34,42.805,6.029,CST-1368DR,5884,8230,15074,0.141,551
2020-10-15T08:38:36,42.805,6.029,CST-1368DR,5884,8230,15075,0.141,551
2020-10-15T08:41:37,42.805,6.029,CST-1368DR,5884,8231,15076,0.141,551
2020-10-15T08:44:39,42.805,6.029,CST-1368DR,5884,8230,15075,0.141,551
2020-10-15T08:47:40,42.805,6.029,CST-1368DR,5884,8232,15078,0.140,551
2020-10-15T08:50:42,42.805,6.029,CST-1368DR,5884,8232,15078,0.140,551
2020-10-15T08:53:44,42.805,6.029,CST-1368DR,5884,8232,15079,0.140,551
2020-10-15T08:56:45,42.805,6.029,CST-1368DR,5884,8230,15075,0.141,551
2020-10-15T08:59:47,42.805,6.029,CST-1368DR,5884,8232,15077,0.141,551
2020-10-15T09:02:48,42.805,6.029,CST-1368DR,5884,8232,15078,0.140,551
2020-10-15T09:05:50,42.805,6.029,CST-1368DR,5884,8229,15073,0.142,551
2020-10-15T09:08:51,42.805,6.029,CST-1368DR,5884,8231,15077,0.141,551
2020-10-15T09:11:53,42.805,6.029,CST-1368DR,5884,8231,15077,0.141,551
2020-10-15T09:14:55,42.805,6.029,CST-1368DR,5884,8232,15078,0.140,551
2020-10-15T09:17:56,42.805,6.029,CST-1368DR,5884,8231,15077,0.141,550
2020-10-15T09:20:58,42.805,6.029,CST-1368DR,5884,8231,15076,0.141,551
2020-10-15T09:23:59,42.805,6.029,CST-1368DR,5884,8231,15076,0.141,551
2020-10-15T09:27:01,42.805,6.029,CST-1368DR,5884,8232,15077,0.141,551
2020-10-15T09:30:02,42.805,6.029,CST-1368DR,5884,8231,15077,0.141,551
2020-10-15T09:33:04,42.805,6.029,CST-1368DR,5884,8230,15075,0.141,551
2020-10-15T09:36:06,42.805,6.029,CST-1368DR,5884,8229,15072,0.142,551
2020-10-15T09:39:07,42.805,6.029,CST-1368DR,5884,8228,15071,0.142,551
2020-10-15T09:42:09,42.805,6.029,CST-1368DR,5884,8230,15074,0.141,551
2020-10-15T09:45:10,42.805,6.029,CST-1368DR,5884,8230,15075,0.141,551
2020-10-15T09:48:12,42.805,6.029,CST-1368DR,5884,8230,15075,0.141,551
2020-10-15T09:51:14,42.805,6.029,CST-1368DR,5884,8231,15076,0.141,551
2020-10-15T09:54:15,42.805,6.029,CST-1368DR,5884,8230,15075,0.141,551
2020-10-15T09:57:17,42.805,6.029,CST-1368DR,5884,8232,15077,0.141,551
2020-10-15T10:00:18,42.805,6.029,CST-1368DR,5884,8230,15075,0.141,551
2020-10-15T10:03:20,42.805,6.029,CST-1368DR,5884,8229,15072,0.142,551
2020-10-15T10:06:21,42.805,6.029,CST-1368DR,5884,8231,15075,0.141,551
2020-10-15T10:09:23,42.805,6.029,CST-1368DR,5884,8232,15078,0.140,551
2020-10-15T10:12:25,42.805,6.029,CST-1368DR,5884,8231,15077,0.141,551
2020-10-15T10:15:26,42.805,6.029,CST-1368DR,5884,8231,15076,0.141,551
2020-10-15T10:18:28,42.805,6.029,CST-1368DR,5884,8232,15077,0.141,550
2020-10-15T10:21:29,42.805,6.029,CST-1368DR,5884,8231,15076,0.141,551
2020-10-15T10:24:31,42.805,6.029,CST-1368DR,5884,8229,15073,0.142,551
2020-10-15T10:27:33,42.805,6.029,CST-1368DR,5884,8232,15078,0.140,551
2020-10-15T10:30:34,42.805,6.029,CST-1368DR,5884,8232,15077,0.141,551
2020-10-15T10:33:36,42.805,6.029,CST-1368DR,5884,8232,15077,0.141,551
2020-10-15T10:36:37,42.805,6.029,CST-1368DR,5884,8232,15077,0.141,551
2020-10-15T10:39:39,42.805,6.029,CST-1368DR,5883,8232,15080,0.140,551
2020-10-15T10:42:40,42.805,6.029,CST-1368DR,5884,8230,15075,0.141,551
2020-10-15T10:45:42,42.805,6.029,CST-1368DR,5884,8231,15077,0.141,551
2020-10-15T10:48:44,42.805,6.029,CST-1368DR,5884,8230,15074,0.141,551
2020-10-15T10:51:45,42.805,6.029,CST-1368DR,5883,8230,15077,0.141,551
2020-10-15T10:54:47,42.805,6.029,CST-1368DR,5883,8230,15077,0.141,551
2020-10-15T10:57:48,42.805,6.029,CST-1368DR,5883,8232,15080,0.140,551
2020-10-15T11:00:50,42.805,6.029,CST-1368DR,5883,8231,15079,0.140,551
2020-10-15T11:03:51,42.805,6.029,CST-1368DR,5883,8227,15071,0.142,551
2020-10-15T11:06:53,42.805,6.029,CST-1368DR,5883,8229,15076,0.141,551
2020-10-15T11:09:55,42.805,6.029,CST-1368DR,5883,8231,15078,0.140,551
2020-10-15T11:12:56,42.805,6.029,CST-1368DR,5883,8230,15077,0.141,551
2020-10-15T11:15:58,42.805,6.029,CST-1368DR,5883,8231,15079,0.140,551
2020-10-15T11:18:59,42.805,6.029,CST-1368DR,5883,8232,15080,0.140,551
2020-10-15T11:22:01,42.805,6.029,CST-1368DR,5883,8231,15078,0.140,551
2020-10-15T11:25:03,42.805,6.029,CST-1368DR,5883,8231,15078,0.140,551
2020-10-15T11:28:04,42.805,6.029,CST-1368DR,5883,8229,15076,0.141,551
2020-10-15T11:31:06,42.805,6.029,CST-1368DR,5883,8228,15073,0.142,551
2020-10-15T11:34:07,42.805,6.029,CST-1368DR,5883,8231,15078,0.140,551
2020-10-15T11:37:09,42.805,6.029,CST-1368DR,5883,8231,15078,0.140,551
2020-10-15T11:40:10,42.805,6.029,CST-1368DR,5883,8231,15078,0.140,551
2020-10-15T11:43:12,42.805,6.029,CST-1368DR,5883,8230,15077,0.141,551
2020-10-15T11:46:14,42.805,6.029,CST-1368DR,5883,8231,15079,0.140,551
2020-10-15T11:49:15,42.805,6.029,CST-1368DR,5883,8230,15077,0.141,551
2020-10-15T11:52:17,42.805,6.029,CST-1368DR,5883,8231,15078,0.140,551
2020-10-15T11:55:18,42.805,6.029,CST-1368DR,5883,8231,15078,0.140,551
2020-10-15T11:58:20,42.805,6.029,CST-1368DR,5883,8231,15078,0.140,551
2020-10-15T12:01:22,42.805,6.029,CST-1368DR,5883,8231,15079,0.140,551
2020-10-15T12:04:23,42.805,6.029,CST-1368DR,5883,8230,15077,0.141,551
2020-10-15T12:07:25,42.805,6.029,CST-1368DR,5883,8230,15077,0.141,551
2020-10-15T12:10:26,42.805,6.029,CST-1368DR,5883,8230,15077,0.141,551
2020-10-15T12:13:28,42.805,6.029,CST-1368DR,5883,8232,15080,0.140,551
2020-10-15T12:16:29,42.805,6.029,CST-1368DR,5883,8231,15079,0.140,551
2020-10-15T12:19:31,42.805,6.029,CST-1368DR,5883,8231,15078,0.140,551
2020-10-15T12:22:33,42.805,6.029,CST-1368DR,5883,8230,15077,0.141,551
2020-10-15T12:25:34,42.805,6.029,CST-1368DR,5883,8229,15076,0.141,551
2020-10-15T12:28:36,42.805,6.029,CST-1368DR,5883,8231,15078,0.140,551
2020-10-15T12:31:37,42.805,6.029,CST-1368DR,5883,8231,15078,0.140,551
2020-10-15T12:34:39,42.805,6.029,CST-1368DR,5883,8230,15077,0.141,551
2020-10-15T12:37:40,42.805,6.029,CST-1368DR,5883,8230,15077,0.141,551
2020-10-15T12:40:42,42.805,6.029,CST-1368DR,5883,8229,15076,0.141,551
2020-10-15T12:43:44,42.805,6.029,CST-1368DR,5883,8230,15077,0.141,551
2020-10-15T12:46:45,42.805,6.029,CST-1368DR,5883,8231,15078,0.140,551
2020-10-15T12:49:47,42.805,6.029,CST-1368DR,5883,8230,15077,0.141,551
2020-10-15T12:52:48,42.805,6.029,CST-1368DR,5883,8230,15077,0.141,551
2020-10-15T12:55:50,42.805,6.029,CST-1368DR,5883,8230,15077,0.141,551
2020-10-15T12:58:52,42.805,6.029,CST-1368DR,5883,8230,15077,0.141,551
2020-10-15T13:01:53,42.805,6.029,CST-1368DR,5883,8222,15063,0.144,551
2020-10-15T13:04:55,42.805,6.029,CST-1368DR,5883,8230,15077,0.141,551
2020-10-15T13:07:56,42.805,6.029,CST-1368DR,5883,8230,15077,0.141,551
2020-10-15T13:10:58,42.805,6.029,CST-1368DR,5883,8228,15073,0.142,551
2020-10-15T13:13:59,42.805,6.029,CST-1368DR,5883,8230,15077,0.141,551
2020-10-15T13:17:01,42.805,6.029,CST-1368DR,5883,8230,15077,0.141,551
2020-10-15T13:20:03,42.805,6.029,CST-1368DR,5883,8229,15076,0.141,551
2020-10-15T13:23:04,42.805,6.029,CST-1368DR,5883,8231,15078,0.140,551
2020-10-15T13:26:06,42.805,6.029,CST-1368DR,5883,8229,15074,0.141,551
2020-10-15T13:29:07,42.805,6.029,CST-1368DR,5883,8230,15076,0.141,551
2020-10-15T13:32:09,42.805,6.029,CST-1368DR,5883,8229,15074,0.141,551
2020-10-15T13:35:10,42.805,6.029,CST-1368DR,5883,8230,15077,0.141,551
2020-10-15T13:38:12,42.805,6.029,CST-1368DR,5883,8229,15075,0.141,551
2020-10-15T13:41:14,42.805,6.029,CST-1368DR,5883,8231,15079,0.140,551
2020-10-15T13:44:15,42.805,6.029,CST-1368DR,5883,8227,15071,0.142,551
2020-10-15T13:47:17,42.805,6.029,CST-1368DR,5883,8231,15078,0.140,551
2020-10-15T13:50:18,42.805,6.029,CST-1368DR,5883,8230,15077,0.141,551
2020-10-15T13:53:20,42.805,6.029,CST-1368DR,5883,8229,15075,0.141,551
2020-10-15T13:56:22,42.805,6.029,CST-1368DR,5883,8229,15075,0.141,551
2020-10-15T13:59:23,42.805,6.029,CST-1368DR,5883,8228,15073,0.142,551
2020-10-15T14:02:25,42.805,6.029,CST-1368DR,5883,8229,15075,0.141,551
2020-10-15T14:05:26,42.805,6.029,CST-1368DR,5883,8230,15076,0.141,551
2020-10-15T14:08:28,42.805,6.029,CST-1368DR,5883,8229,15075,0.141,551
2020-10-15T14:11:29,42.805,6.029,CST-1368DR,5883,8229,15075,0.141,551
2020-10-15T14:14:31,42.805,6.029,CST-1368DR,5883,8230,15076,0.141,551
2020-10-15T14:17:33,42.805,6.029,CST-1368DR,5883,8230,15076,0.141,551
2020-10-15T14:20:34,42.805,6.029,CST-1368DR,5883,8230,15076,0.141,551
2020-10-15T14:23:36,42.805,6.029,CST-1368DR,5883,8230,15077,0.141,551
2020-10-15T14:26:37,42.805,6.029,CST-1368DR,5883,8230,15077,0.141,550
2020-10-15T14:29:39,42.805,6.029,CST-1368DR,5883,8228,15074,0.141,551
2020-10-15T14:32:41,42.805,6.029,CST-1368DR,5883,8230,15077,0.141,551
2020-10-15T14:35:42,42.805,6.029,CST-1368DR,5883,8230,15077,0.141,551
2020-10-15T14:38:44,42.805,6.029,CST-1368DR,5883,8230,15077,0.141,551
2020-10-15T14:41:45,42.805,6.029,CST-1368DR,5883,8229,15075,0.141,551
2020-10-15T14:44:47,42.805,6.029,CST-1368DR,5883,8230,15077,0.141,550
2020-10-15T14:47:48,42.805,6.029,CST-1368DR,5883,8229,15076,0.141,551
2020-10-15T14:50:50,42.805,6.029,CST-1368DR,5883,8230,15077,0.141,551
2020-10-15T14:53:52,42.805,6.029,CST-1368DR,5883,8230,15076,0.141,551
2020-10-15T14:56:53,42.805,6.029,CST-1368DR,5883,8230,15076,0.141,551
2020-10-15T14:59:55,42.805,6.029,CST-1368DR,5883,8227,15072,0.142,551
2020-10-15T15:02:56,42.805,6.029,CST-1368DR,5883,8224,15065,0.144,551
2020-10-15T15:05:58,42.805,6.029,CST-1368DR,5883,8230,15077,0.141,551
2020-10-15T15:09:00,42.805,6.029,CST-1368DR,5883,8229,15075,0.141,551
2020-10-15T15:12:01,42.805,6.029,CST-1368DR,5883,8230,15077,0.141,551
2020-10-15T15:15:03,42.805,6.029,CST-1368DR,5883,8230,15077,0.141,551
2020-10-15T15:18:04,42.805,6.029,CST-1368DR,5883,8229,15074,0.141,551
2020-10-15T15:21:06,42.805,6.029,CST-1368DR,5883,8229,15076,0.141,551
2020-10-15T15:24:07,42.805,6.029,CST-1368DR,5883,8229,15076,0.141,551
2020-10-15T15:27:09,42.805,6.029,CST-1368DR,5883,8230,15076,0.141,551
2020-10-15T15:30:11,42.805,6.029,CST-1368DR,5883,8229,15075,0.141,551
2020-10-15T15:33:12,42.805,6.029,CST-1368DR,5883,8229,15075,0.141,550
2020-10-15T15:36:14,42.805,6.029,CST-1368DR,5883,8230,15077,0.141,551
2020-10-15T15:39:15,42.805,6.029,CST-1368DR,5883,8230,15076,0.141,551
2020-10-15T15:42:17,42.805,6.029,CST-1368DR,5883,8230,15077,0.141,551
2020-10-15T15:45:18,42.805,6.029,CST-1368DR,5883,8230,15077,0.141,551
2020-10-15T15:48:20,42.805,6.029,CST-1368DR,5883,8230,15076,0.141,551
2020-10-15T15:51:22,42.805,6.029,CST-1368DR,5883,8229,15076,0.141,551
2020-10-15T15:54:23,42.805,6.029,CST-1368DR,5883,8231,15078,0.140,551
2020-10-15T15:57:25,42.805,6.029,CST-1368DR,5883,8230,15077,0.141,551
2020-10-15T16:00:26,42.805,6.029,CST-1368DR,5883,8228,15073,0.142,550
2020-10-15T16:03:28,42.805,6.029,CST-1368DR,5883,8228,15073,0.142,551
2020-10-15T16:06:30,42.805,6.029,CST-1368DR,5883,8230,15077,0.141,551
2020-10-15T16:09:31,42.805,6.029,CST-1368DR,5883,8230,15077,0.141,551
2020-10-15T16:12:33,42.805,6.029,CST-1368DR,5883,8229,15075,0.141,551
2020-10-15T16:15:34,42.805,6.029,CST-1368DR,5883,8230,15076,0.141,551
2020-10-15T16:18:36,42.805,6.029,CST-1368DR,5883,8228,15073,0.142,551
2020-10-15T16:21:37,42.805,6.029,CST-1368DR,5883,8229,15076,0.141,550
2020-10-15T16:24:39,42.805,6.029,CST-1368DR,5883,8229,15075,0.141,551
2020-10-15T16:27:41,42.805,6.029,CST-1368DR,5883,8230,15076,0.141,551
2020-10-15T16:30:42,42.805,6.029,CST-1368DR,5883,8230,15077,0.141,551
2020-10-15T16:33:44,42.805,6.029,CST-1368DR,5882,8229,15077,0.141,551
2020-10-15T16:36:45,42.805,6.029,CST-1368DR,5883,8229,15075,0.141,551
2020-10-15T16:39:47,42.805,6.029,CST-1368DR,5883,8227,15072,0.142,551
2020-10-15T16:42:49,42.805,6.029,CST-1368DR,5882,8229,15078,0.140,551
2020-10-15T16:45:50,42.805,6.029,CST-1368DR,5883,8229,15075,0.141,551
2020-10-15T16:48:52,42.805,6.029,CST-1368DR,5882,8229,15078,0.140,551
2020-10-15T16:51:53,42.805,6.029,CST-1368DR,5883,8228,15074,0.141,551